Weather History for Bartow, FL

Change the Weather History Date:

Friday, May 10, 2013

  Actual Average Record
Temperature  
Mean Temperature 76 °F -  
Max Temperature 89 °F 87 °F 96 °F (1932)
Min Temperature 62 °F 65 °F 55 °F (1960)
Cooling Degree Days 10    
Growing Degree Days 26 (Base 50)    
Moisture  
Dew Point 63 °F    
Average Humidity 65    
Maximum Humidity 100    
Minimum Humidity 33    
Precipitation  
Precipitation 0.00 in - - ()
Sea Level Pressure  
Sea Level Pressure 30.08 in    
Wind  
Wind Speed 4 mph (SSW)    
Max Wind Speed 14 mph    
Max Gust Speed 17 mph    
Visibility 8 miles    
Events      
Averages and records for this station are not official NWS values.
T = Trace of Precipitation, MM = Missing Value Source: NWS Daily Summary

Daily Weather History Graph

Daily Weather History Graph

Search for Another Location

Airport:

Trip Planner

Search our weather history database for the weather conditions in past years. The results will help you decide how hot, cold, wet, or windy it might be!

Date:

Astronomy

May. 10, 2013 Rise Set
Actual Time 6:40 AM EDT 8:06 PM EDT
Civil Twilight 6:15 AM EDT 8:32 PM EDT
Nautical Twilight 5:45 AM EDT 9:02 PM EDT
Astronomical Twilight 5:13 AM EDT 9:33 PM EDT
Moon 7:04 AM EDT (5/10) 8:53 PM EDT (5/10)
Length of Visible Light 14h 17m
Length of Day
13h 26m
New Moon, 0% of the Moon is Illuminated
May 10
New Moon
May 18
First Quarter
May 25
Full
May 31
Last Quarter
Jun 8
New

Hourly Weather History & Observations

Time (EDT) Temp. Heat Index Dew Point Humidity Pressure Visibility Wind Dir Wind Speed Gust Speed Precip Events Conditions
12:15 AM 68.0 °F - 62.6 °F 83% 30.16 in 10.0 mi Calm Calm - N/A   Clear
12:35 AM 68.0 °F - 60.8 °F 78% 30.17 in 10.0 mi Calm Calm - N/A   Clear
12:55 AM 66.2 °F - 60.8 °F 83% 30.16 in 9.0 mi Calm Calm - N/A   Clear
1:55 AM 64.4 °F - 60.8 °F 88% 30.14 in 10.0 mi Calm Calm - N/A   Clear
2:15 AM 68.0 °F - 60.8 °F 78% 30.13 in 10.0 mi Calm Calm - N/A   Clear
2:35 AM 62.6 °F - 60.8 °F 94% 30.12 in 9.0 mi Calm Calm - N/A   Clear
2:55 AM 64.4 °F - 62.6 °F 94% 30.11 in 9.0 mi Calm Calm - N/A   Clear
3:15 AM 62.6 °F - 60.8 °F 94% 30.11 in 9.0 mi Calm Calm - N/A   Clear
3:35 AM 62.6 °F - 60.8 °F 94% 30.11 in 10.0 mi Calm Calm - N/A   Clear
3:55 AM 62.6 °F - 60.8 °F 94% 30.11 in 9.0 mi Calm Calm - N/A   Clear
4:15 AM 64.4 °F - 60.8 °F 88% 30.11 in 7.0 mi Calm Calm - N/A   Clear
4:55 AM 64.4 °F - 64.4 °F 100% 30.09 in 6.0 mi Calm Calm - N/A   Mostly Cloudy
5:15 AM 62.6 °F - 62.6 °F 100% 30.09 in 5.0 mi Calm Calm - N/A   Partly Cloudy
5:35 AM 64.4 °F - 64.4 °F 100% 30.10 in 5.0 mi Calm Calm - N/A   Mostly Cloudy
5:55 AM 64.4 °F - 64.4 °F 100% 30.09 in 5.0 mi Calm Calm - N/A   Scattered Clouds
6:15 AM 64.4 °F - 64.4 °F 100% 30.09 in 2.5 mi Calm Calm - N/A   Clear
6:35 AM 64.4 °F - 64.4 °F 100% 30.09 in 2.0 mi Calm Calm - N/A   Clear
7:15 AM 66.2 °F - 66.2 °F 100% 30.10 in 2.5 mi ESE 4.6 mph - N/A   Clear
7:35 AM 66.2 °F - 66.2 °F 100% 30.10 in 3.0 mi ESE 5.8 mph - N/A   Clear
8:15 AM 71.6 °F - 71.6 °F 100% 30.10 in 7.0 mi ESE 6.9 mph - N/A   Clear
8:35 AM 73.4 °F - 71.6 °F 94% 30.11 in 8.0 mi ESE 8.1 mph - N/A   Clear
9:15 AM 75.2 °F - 69.8 °F 83% 30.12 in 8.0 mi SE 9.2 mph - N/A   Partly Cloudy
9:47 AM 78.8 °F - 69.8 °F 74% 30.12 in 8.0 mi SE 11.5 mph - N/A   Scattered Clouds
9:55 AM 78.8 °F - 69.8 °F 74% 30.11 in 8.0 mi ESE 11.5 mph - N/A   Partly Cloudy
10:15 AM 80.6 °F 83.9 °F 69.8 °F 70% 30.11 in 8.0 mi SE 12.7 mph - N/A   Scattered Clouds
10:35 AM 82.4 °F 85.4 °F 68.0 °F 62% 30.11 in 9.0 mi SE 13.8 mph - N/A   Mostly Cloudy
10:50 AM 82.4 °F 85.4 °F 68.0 °F 62% 30.10 in 9.0 mi SE 11.5 mph - N/A   Mostly Cloudy
10:55 AM 82.4 °F 85.4 °F 68.0 °F 62% 30.10 in 8.0 mi SE 12.7 mph - N/A   Mostly Cloudy
11:15 AM 82.4 °F 84.6 °F 66.2 °F 58% 30.10 in 8.0 mi SE 12.7 mph 17.3 mph N/A   Mostly Cloudy
11:35 AM 84.2 °F 86.6 °F 66.2 °F 55% 30.10 in 8.0 mi SE 10.4 mph - N/A   Scattered Clouds
11:47 AM 84.2 °F 86.6 °F 66.2 °F 55% 30.10 in 9.0 mi SSE 10.4 mph - N/A   Scattered Clouds
11:55 AM 84.2 °F 86.6 °F 66.2 °F 55% 30.10 in 9.0 mi East 10.4 mph - N/A   Mostly Cloudy
12:15 PM 84.2 °F 85.6 °F 64.4 °F 51% 30.11 in 8.0 mi South 9.2 mph - N/A   Mostly Cloudy
12:35 PM 84.2 °F 86.6 °F 66.2 °F 55% 30.11 in 9.0 mi South 9.2 mph - N/A   Mostly Cloudy
1:15 PM 87.8 °F 88.5 °F 62.6 °F 43% 30.10 in 8.0 mi SSW 8.1 mph - N/A   Partly Cloudy
1:35 PM 87.8 °F 88.5 °F 62.6 °F 43% 30.10 in 8.0 mi SSW 9.2 mph - N/A   Clear
1:47 PM 87.8 °F 88.5 °F 62.6 °F 43% 30.09 in 9.0 mi West 10.4 mph - N/A   Scattered Clouds
1:55 PM 87.8 °F 88.5 °F 62.6 °F 43% 30.10 in 8.0 mi South 8.1 mph - N/A   Clear
2:15 PM 87.8 °F 88.5 °F 62.6 °F 43% 30.09 in 8.0 mi South 4.6 mph - N/A   Clear
2:35 PM 87.8 °F 88.5 °F 62.6 °F 43% 30.09 in 8.0 mi WSW 12.7 mph - N/A   Clear
2:47 PM 87.8 °F 88.5 °F 62.6 °F 43% 30.08 in 9.0 mi SW 10.4 mph - N/A   Scattered Clouds
2:55 PM 89.6 °F 90.1 °F 62.6 °F 40% 30.07 in 8.0 mi West 4.6 mph - N/A   Clear
3:15 PM 89.6 °F 89.5 °F 60.8 °F 38% 30.07 in 9.0 mi West 9.2 mph - N/A   Clear
3:35 PM 89.6 °F 89.5 °F 60.8 °F 38% 30.06 in 8.0 mi WSW 4.6 mph - N/A   Clear
3:55 PM 89.6 °F 88.9 °F 59.0 °F 36% 30.05 in 9.0 mi WSW 10.4 mph - N/A   Clear
4:15 PM 89.6 °F 88.9 °F 59.0 °F 36% 30.04 in 8.0 mi West 10.4 mph - N/A   Clear
4:35 PM 89.6 °F 88.9 °F 59.0 °F 36% 30.03 in 8.0 mi SW 8.1 mph - N/A   Clear
4:55 PM 89.6 °F 89.5 °F 60.8 °F 38% 30.03 in 9.0 mi WSW 8.1 mph - N/A   Clear
5:15 PM 89.6 °F 88.9 °F 59.0 °F 36% 30.02 in 9.0 mi West 5.8 mph - N/A   Clear
5:35 PM 89.6 °F 88.9 °F 59.0 °F 36% 30.02 in 9.0 mi SW 8.1 mph - N/A   Clear
5:55 PM 87.8 °F 86.5 °F 57.2 °F 35% 30.01 in 8.0 mi West 10.4 mph - N/A   Clear
6:15 PM 89.6 °F 88.1 °F 57.2 °F 33% 30.01 in 7.0 mi NW 8.1 mph - N/A   Clear
6:35 PM 87.8 °F 87.1 °F 59.0 °F 38% 30.02 in 9.0 mi West 9.2 mph - N/A   Clear
6:55 PM 86.0 °F 86.1 °F 60.8 °F 43% 30.02 in 9.0 mi WSW 11.5 mph - N/A   Clear
7:15 PM 84.2 °F 85.0 °F 62.6 °F 48% 30.02 in 7.0 mi WSW 9.2 mph - N/A   Clear
7:35 PM 84.2 °F 85.0 °F 62.6 °F 48% 30.03 in 10.0 mi WSW 6.9 mph - N/A   Clear
7:55 PM 84.2 °F 85.0 °F 62.6 °F 48% 30.03 in 8.0 mi WSW 6.9 mph - N/A   Clear
8:15 PM 82.4 °F 83.4 °F 62.6 °F 51% 30.03 in 10.0 mi West 4.6 mph - N/A   Partly Cloudy
8:35 PM 82.4 °F 83.4 °F 62.6 °F 51% 30.04 in 10.0 mi WSW 3.5 mph - N/A   Partly Cloudy
8:55 PM 80.6 °F 81.8 °F 62.6 °F 54% 30.04 in 10.0 mi West 3.5 mph - N/A   Scattered Clouds
9:15 PM 80.6 °F 81.8 °F 62.6 °F 54% 30.05 in 10.0 mi Calm Calm - N/A   Mostly Cloudy
9:35 PM 78.8 °F - 64.4 °F 61% 30.05 in 10.0 mi WSW 5.8 mph - N/A   Mostly Cloudy
9:55 PM 77.0 °F - 64.4 °F 65% 30.05 in 10.0 mi SSW 11.5 mph - N/A   Mostly Cloudy
10:15 PM 77.0 °F - 64.4 °F 65% 30.05 in 10.0 mi SSW 9.2 mph - N/A   Scattered Clouds
10:35 PM 75.2 °F - 64.4 °F 69% 30.06 in 10.0 mi SW 6.9 mph - N/A   Partly Cloudy
10:55 PM 75.2 °F - 64.4 °F 69% 30.06 in 10.0 mi SSW 8.1 mph - N/A   Clear
11:15 PM 75.2 °F - 64.4 °F 69% 30.07 in 10.0 mi SSW 8.1 mph - N/A   Clear
11:35 PM 73.4 °F - 64.4 °F 73% 30.08 in 10.0 mi WSW 5.8 mph - N/A   Clear
11:55 PM 73.4 °F - 66.2 °F 78% 30.08 in 10.0 mi Calm Calm - N/A   Clear